(35344) = 1997 HX6 = 1999 RT92

Discovered at Socorro on 1997-04-30 by LINEAR.

Orbit

Orbit type: Main Belt

Note: WebGL enabled browser required.

epoch2024-03-31.0
epoch JD2460400.5
perihelion date2022-08-18.35729
perihelion JD2459809.85729
argument of perihelion (°)64.65862
ascending node (°)97.33340
inclination (°)2.35455
eccentricity0.1618610
perihelion distance (AU)2.5049482
Tisserand w.r.t. Jupiter3.2
ΔV w.r.t. Earth (km/sec)10.0
semimajor axis (AU)2.9887026
mean anomaly (°)112.66905
mean daily motion (°/day)0.19075670
aphelion distance (AU)3.472
period (years)5.17
P-vector [x]-0.95025673
P-vector [y]0.26895892
P-vector [z]0.15707722
Q-vector [x]-0.30879092
Q-vector [y]-0.87949003
Q-vector [z]-0.36214010
absolute magnitude13.78
phase slope0.15
uncertainty0
referenceMPEC 2024-C115
observations used2595
oppositions19
arc length (days)9623
first opposition used1997
last opposition used2023
residual rms (arc-secs)0.62
perturbers coarse indicatorM-v
perturbers precise indicator003Ek
first observation date used1997-04-02.0
last observation date used2023-08-07.0
computer nameMPCLINUX
JD of orbit computation2456937.438588
perihelion JD uncertainty (days)5.5491E-05
argument of perihelion uncertainty (°)1.0700E-04
ascending node uncertainty (°)1.0652E-04
inclination uncertainty (°)3.3126E-06
eccentricity uncertainty 4.6727E-08
perihelion distance uncertainty (AU)1.4414E-07
Minimum Orbit Intersection Distances (in AU)
for orbit epoch: 2460200.5, reference: E2024-CB5
Mercury2.1273
Venus1.78688
Earth1.51386
Mars0.84054
Jupiter1.50594
Saturn6.00195
Uranus15.9402
Neptune26.4459

Observations

2652 total observations over interval: 1997 04 02.41237 – 2023 08 07.775114
These data are available for download (format description).

Date (UT) J2000 RA J2000 Dec Magn Location Ref
1997 04 02.41237 14 47 15.78 -12 42 16.2 18.4   704 – Lincoln Laboratory ETS, New Mexico MPC 30021
1997 04 02.45403 14 47 14.38 -12 42 09.1   704 – Lincoln Laboratory ETS, New Mexico MPC 30021
1997 04 30.20372 14 27 07.07 -11 08 49.2   704 – Lincoln Laboratory ETS, New Mexico MPC 29830
1997 04 30.22599 14 27 05.94 -11 08 44.6 18.3   704 – Lincoln Laboratory ETS, New Mexico MPC 29830
1997 04 30.24840 14 27 04.81 -11 08 40.0   704 – Lincoln Laboratory ETS, New Mexico MPC 29830
1997 04 30.27086 14 27 03.67 -11 08 35.4   704 – Lincoln Laboratory ETS, New Mexico MPC 29831
1997 04 30.29349 14 27 02.51 -11 08 30.5 18.9   704 – Lincoln Laboratory ETS, New Mexico MPC 29831
1997 05 01.20982 14 26 17.61 -11 05 19.9   704 – Lincoln Laboratory ETS, New Mexico MPC 29831
1997 05 01.23217 14 26 16.50 -11 05 15.2   704 – Lincoln Laboratory ETS, New Mexico MPC 29831
1997 05 01.25464 14 26 15.34 -11 05 10.9   704 – Lincoln Laboratory ETS, New Mexico MPC 29831
1997 05 01.27707 14 26 14.19 -11 05 06.1   704 – Lincoln Laboratory ETS, New Mexico MPC 29831
1997 05 01.29958 14 26 13.05 -11 05 01.8   704 – Lincoln Laboratory ETS, New Mexico MPC 29831
1997 05 26.89669 14 08 51.19 -10 01 06.8 18.0 V 910 – Caussols-ODAS MPC 30061
1997 05 26.90979 14 08 50.81 -10 01 05.9 18.1 V 910 – Caussols-ODAS MPC 30061
1997 05 26.92258 14 08 50.44 -10 01 04.9 18.2 V 910 – Caussols-ODAS MPC 30061
1999 09 04.35524 00 34 44.66 +00 15 21.2 18.8 R 699 – Lowell Observatory-LONEOS MPS 60652
1999 09 04.38080 00 34 43.75 +00 15 15.3   699 – Lowell Observatory-LONEOS MPS 60652
1999 09 04.40637 00 34 42.92 +00 15 10.1   699 – Lowell Observatory-LONEOS MPS 60652
1999 09 07.40238 00 32 58.92 +00 02 17.3 18.9   704 – Lincoln Laboratory ETS, New Mexico MPS 6276
1999 09 07.41379 00 32 58.51 +00 02 13.9 19.2   704 – Lincoln Laboratory ETS, New Mexico MPS 6276
1999 09 07.42517 00 32 58.07 +00 02 11.9 19.8   704 – Lincoln Laboratory ETS, New Mexico MPS 6276
1999 09 07.43655 00 32 57.64 +00 02 07.9 19.6   704 – Lincoln Laboratory ETS, New Mexico MPS 6276
1999 09 07.44787 00 32 57.21 +00 02 04.5 19.6   704 – Lincoln Laboratory ETS, New Mexico MPS 6276
1999 09 14.26067 00 28 36.01 -00 29 10.8 19.2   704 – Lincoln Laboratory ETS, New Mexico MPS 6276
1999 09 14.27335 00 28 35.45 -00 29 15.5 19.2   704 – Lincoln Laboratory ETS, New Mexico MPS 6276
1999 09 14.28612 00 28 34.89 -00 29 18.7 19.5   704 – Lincoln Laboratory ETS, New Mexico MPS 6276
1999 09 14.29892 00 28 34.33 -00 29 23.0 19.3   704 – Lincoln Laboratory ETS, New Mexico MPS 6276
1999 09 14.31177 00 28 33.87 -00 29 25.4 19.6   704 – Lincoln Laboratory ETS, New Mexico MPS 6276
1999 10 02.34886 00 15 27.90 -01 56 48.5 19.1   704 – Lincoln Laboratory ETS, New Mexico MPS 6677
1999 10 02.36233 00 15 27.35 -01 56 51.8 19.2   704 – Lincoln Laboratory ETS, New Mexico MPS 6677
1999 10 02.38918 00 15 26.16 -01 56 59.6 19.7   704 – Lincoln Laboratory ETS, New Mexico MPS 6677
1999 10 02.40253 00 15 25.48 -01 57 02.1 19.7   704 – Lincoln Laboratory ETS, New Mexico MPS 6677
1999 10 07.22006 00 11 54.28 -02 19 03.0 18.5 R 703 – Catalina Sky Survey MPS 6677
1999 10 07.23232 00 11 53.74 -02 19 06.9 18.9 R 703 – Catalina Sky Survey MPS 6677
1999 10 07.24454 00 11 53.16 -02 19 09.9 18.2 R 703 – Catalina Sky Survey MPS 6677
1999 10 07.25676 00 11 52.53 -02 19 13.0 18.6 R 703 – Catalina Sky Survey MPS 6677
2000 09 01.41781 05 07 43.73 +21 23 42.4   704 – Lincoln Laboratory ETS, New Mexico MPS 17394
2000 09 01.42881 05 07 44.30 +21 23 43.6   704 – Lincoln Laboratory ETS, New Mexico MPS 17394
2000 09 01.44423 05 07 45.20 +21 23 44.4   704 – Lincoln Laboratory ETS, New Mexico MPS 17394
2000 09 01.45524 05 07 45.82 +21 23 46.2   704 – Lincoln Laboratory ETS, New Mexico MPS 17394
2000 09 01.46625 05 07 46.51 +21 23 47.2   704 – Lincoln Laboratory ETS, New Mexico MPS 17394
2000 09 04.42836 05 10 37.19 +21 27 06.0 19.8   704 – Lincoln Laboratory ETS, New Mexico MPS 17394
2000 09 04.43949 05 10 37.82 +21 27 06.9 19.6   704 – Lincoln Laboratory ETS, New Mexico MPS 17394
2000 09 04.45049 05 10 38.40 +21 27 08.0 19.4   704 – Lincoln Laboratory ETS, New Mexico MPS 17394
2000 09 04.46149 05 10 38.99 +21 27 09.0 19.4   704 – Lincoln Laboratory ETS, New Mexico MPS 17394
2000 09 07.41096 05 13 22.03 +21 30 08.7 19.3   704 – Lincoln Laboratory ETS, New Mexico MPS 17394
2000 09 07.42202 05 13 22.54 +21 30 08.7 19.5   704 – Lincoln Laboratory ETS, New Mexico MPS 17394
2000 09 07.43308 05 13 23.16 +21 30 09.2 19.7   704 – Lincoln Laboratory ETS, New Mexico MPS 17394
2000 09 30.40768 05 29 49.30 +21 44 26.5 19.3   704 – Lincoln Laboratory ETS, New Mexico MPS 18917
2000 09 30.42329 05 29 49.81 +21 44 26.4 19.4   704 – Lincoln Laboratory ETS, New Mexico MPS 18917
2000 09 30.43811 05 29 50.13 +21 44 26.4 19.9   704 – Lincoln Laboratory ETS, New Mexico MPS 18917
2000 09 30.45296 05 29 50.60 +21 44 27.5 20.1   704 – Lincoln Laboratory ETS, New Mexico MPS 18917
2000 09 30.46879 05 29 51.12 +21 44 28.0 19.5   704 – Lincoln Laboratory ETS, New Mexico MPS 18917
2000 11 01.37060 05 34 02.64 +21 49 02.6 18.5   704 – Lincoln Laboratory ETS, New Mexico MPS 20672
2000 11 01.38464 05 34 02.44 +21 49 04.3 19.6   704 – Lincoln Laboratory ETS, New Mexico MPS 20672
2000 11 01.39863 05 34 02.19 +21 49 04.1 19.6   704 – Lincoln Laboratory ETS, New Mexico MPS 20672
2000 11 01.42670 05 34 01.66 +21 49 03.3 19.6   704 – Lincoln Laboratory ETS, New Mexico MPS 20672
2000 11 02.34734 05 33 45.92 +21 49 02.5 18.5   704 – Lincoln Laboratory ETS, New Mexico MPS 20672
2000 11 02.36138 05 33 45.64 +21 49 01.5 18.6   704 – Lincoln Laboratory ETS, New Mexico MPS 20672
2000 11 02.37504 05 33 45.24 +21 49 02.5 19.4   704 – Lincoln Laboratory ETS, New Mexico MPS 20672
2000 11 02.38870 05 33 45.08 +21 49 02.3 18.9   704 – Lincoln Laboratory ETS, New Mexico MPS 20672
2000 11 02.40236 05 33 44.79 +21 49 02.7 18.6   704 – Lincoln Laboratory ETS, New Mexico MPS 20672
2000 11 21.36393 05 23 35.85 +21 47 07.9 17.6   704 – Lincoln Laboratory ETS, New Mexico MPS 22104
2000 11 21.37864 05 23 35.19 +21 47 07.8 18.0   704 – Lincoln Laboratory ETS, New Mexico MPS 22104
2000 11 21.39334 05 23 34.51 +21 47 07.5 17.9   704 – Lincoln Laboratory ETS, New Mexico MPS 22104
2000 11 21.40807 05 23 33.82 +21 47 07.4 18.0   704 – Lincoln Laboratory ETS, New Mexico MPS 22104
2000 11 21.42648 05 23 32.97 +21 47 07.4 18.0   704 – Lincoln Laboratory ETS, New Mexico MPS 22104
2000 12 21.29563 04 56 49.97 +21 34 43.1 17.5   704 – Lincoln Laboratory ETS, New Mexico MPS 23505
2000 12 21.31092 04 56 49.10 +21 34 42.5 18.7   704 – Lincoln Laboratory ETS, New Mexico MPS 23505
2000 12 21.32748 04 56 48.25 +21 34 42.1 18.2   704 – Lincoln Laboratory ETS, New Mexico MPS 23505
2000 12 21.34284 04 56 47.41 +21 34 41.9 18.1   704 – Lincoln Laboratory ETS, New Mexico MPS 23505
2000 12 21.35813 04 56 46.62 +21 34 40.5 18.7   704 – Lincoln Laboratory ETS, New Mexico MPS 23505
2000 12 30.22699 04 49 29.36 +21 30 44.5 17.7   704 – Lincoln Laboratory ETS, New Mexico MPS 23505
2000 12 30.24242 04 49 28.62 +21 30 44.5 18.1   704 – Lincoln Laboratory ETS, New Mexico MPS 23505
2000 12 30.25794 04 49 27.91 +21 30 44.5 18.0   704 – Lincoln Laboratory ETS, New Mexico MPS 23505
2000 12 30.27336 04 49 27.21 +21 30 43.9 17.7   704 – Lincoln Laboratory ETS, New Mexico MPS 23505
2000 12 30.28881 04 49 26.50 +21 30 43.9 17.5   704 – Lincoln Laboratory ETS, New Mexico MPS 23505
2001 01 02.24962 04 47 19.49 +21 29 47.5 17.3   704 – Lincoln Laboratory ETS, New Mexico MPS 23505
2001 01 02.26479 04 47 18.86 +21 29 47.0 17.2   704 – Lincoln Laboratory ETS, New Mexico MPS 23505
2001 01 02.27996 04 47 18.20 +21 29 47.0 16.5   704 – Lincoln Laboratory ETS, New Mexico MPS 23505
2001 01 03.22376 04 46 40.19 +21 29 31.7 18.6   704 – Lincoln Laboratory ETS, New Mexico MPS 23505
2001 01 03.23890 04 46 39.55 +21 29 30.9 18.9   704 – Lincoln Laboratory ETS, New Mexico MPS 23505
2001 01 03.25403 04 46 39.07 +21 29 29.9 19.3   704 – Lincoln Laboratory ETS, New Mexico MPS 23505
2001 01 15.10900 04 40 30.50 +21 29 09.4 19.0 V 691 – Steward Observatory, Kitt Peak-Spacewatch MPS 24802
2001 01 15.13695 04 40 29.84 +21 29 09.8 18.7 V 691 – Steward Observatory, Kitt Peak-Spacewatch MPS 24802
